K2BIG Weather Reports


time (UTC)temp
C
wind
direction
speed
KPH
gust
KPH
rain 1hr
cm
rain 24hr
cm
rain mn
cm
humidity
%
barometer
mb
20260502152017 13 315 4.8 12.9 0.00 0.25 0.25 68 1012.1
20260502151516 13 293 4.8 11.3 0.00 0.25 0.25 66 1012.1
20260502151017 12 270 4.8 12.9 0.00 0.25 0.25 70 1012.0
20260502150516 12 270 4.8 12.9 0.00 0.25 0.25 70 1012.2
20260502130516 8 270 3.2 6.4 0.00 0.25 0.25 90 1012.4
20260502123516 8 293 4.8 12.9 0.00 0.25 0.25 95 1012.0
20260502123016 8 293 4.8 12.9 0.00 0.25 0.25 95 1012.0
20260502122516 8 248 4.8 9.7 0.00 0.25 0.25 96 1012.0
20260502122016 8 248 4.8 11.3 0.00 0.25 0.25 96 1012.0
20260502121516 8 248 3.2 6.4 0.00 0.25 0.25 97 1011.9
20260502121016 8 225 1.6 4.8 0.00 0.25 0.25 97 1011.9
20260502120516 8 225 1.6 3.2 0.00 0.25 0.25 97 1011.9
20260502115516 8 0.0 3.2 0.00 0.25 0.25 97 1012.0
20260502115016 8 0.0 4.8 0.00 0.25 0.25 96 1012.1
20260502114516 8 225 1.6 3.2 0.00 0.25 0.25 96 1012.1
20260502114016 8 225 1.6 4.8 0.00 0.25 0.25 97 1012.2
20260502113516 8 225 1.6 4.8 0.00 0.25 0.25 97 1012.0
20260502113016 8 0.0 4.8 0.00 0.25 0.25 97 1012.0
20260502112516 8 248 1.6 6.4 0.00 0.25 0.25 97 1012.1
20260502112016 8 0.0 3.2 0.00 0.25 0.25 97 1012.0
20260502111516 7 0.0 0.0 0.00 0.25 0.25 96 1011.9
20260502111017 7 0.0 0.0 0.00 0.25 0.25 96 1012.0
20260502110516 7 0.0 0.0 0.00 0.25 0.25 96 1011.8
20260502110016 7 0.0 0.0 0.00 0.25 0.25 96 1011.7
20260502105516 7 0.0 0.0 0.00 0.25 0.25 96 1011.7
20260502105016 7 0.0 0.0 0.00 0.25 0.25 96 1011.6
20260502104516 7 0.0 0.0 0.00 0.25 0.25 96 1011.4
20260502104016 7 0.0 0.0 0.00 0.25 0.25 96 1011.5
20260502103516 7 0.0 0.0 0.00 0.25 0.25 96 1011.4
20260502103016 7 0.0 0.0 0.00 0.25 0.25 95 1011.3
20260502102516 7 0.0 0.0 0.00 0.25 0.25 95 1011.4
20260502102016 7 0.0 0.0 0.00 0.25 0.25 95 1011.4
20260502101516 7 0.0 0.0 0.00 0.25 0.25 95 1011.5
20260502101016 7 0.0 0.0 0.00 0.25 0.25 95 1011.5
20260502100516 7 0.0 0.0 0.00 0.25 0.25 95 1011.4
20260502091516 7 0.0 0.0 0.13 0.25 0.25 95 1011.2
20260502091016 7 0.0 0.0 0.15 0.25 0.25 95 1011.0
20260502090516 8 0.0 0.0 0.18 0.25 0.25 95 1011.0
20260502071515 8 0.0 0.0 0.03 0.05 0.05 93 1011.7
20260502071016 8 0.0 0.0 0.05 0.05 0.05 93 1011.7
20260502070516 8 0.0 1.6 0.05 0.05 0.05 93 1011.8
20260502070017 8 0.0 0.0 0.05 0.05 0.05 93 1011.9
20260502065515 8 0.0 0.0 0.05 0.05 0.05 92 1011.9
20260502065016 8 0.0 0.0 0.05 0.05 0.05 92 1011.9
20260502064516 8 0.0 0.0 0.05 0.05 0.05 92 1011.9
20260502064016 8 0.0 0.0 0.05 0.05 0.05 92 1012.0
20260502063516 8 0.0 0.0 0.05 0.05 0.05 91 1012.1
20260502063016 8 0.0 4.8 0.05 0.05 0.05 91 1012.2
20260502062516 8 0.0 3.2 0.05 0.05 0.05 91 1012.1
20260502062015 8 0.0 0.0 0.05 0.05 0.05 91 1012.0
20260502061515 8 248 1.6 6.4 0.03 0.03 0.03 90 1012.1
20260502061015 8 225 1.6 6.4 0.00 0.00 0.00 91 1012.4
20260502060516 9 203 1.6 4.8 0.00 0.00 0.00 91 1012.4
20260502060015 9 180 1.6 6.4 0.00 0.00 0.00 91 1012.3
20260502055516 9 180 1.6 4.8 0.00 0.00 0.00 91 1012.2
20260502055015 9 0.0 0.0 0.00 0.00 0.00 90 1011.9
20260502054515 9 0.0 0.0 0.00 0.00 0.00 90 1011.9
20260502054015 9 0.0 0.0 0.00 0.00 0.00 89 1011.8
20260502053515 9 0.0 0.0 0.00 0.00 0.00 89 1011.8
20260502053015 9 0.0 0.0 0.00 0.00 0.00 87 1011.8
20260502052516 9 0.0 0.0 0.00 0.00 0.00 86 1012.0
20260502052015 10 0.0 0.0 0.00 0.00 0.00 85 1012.0
20260502051515 10 180 1.6 4.8 0.00 0.00 0.00 85 1012.1
20260502051016 10 180 3.2 8.0 0.00 0.00 0.00 85 1012.2
20260502050516 10 0.0 3.2 0.00 0.00 0.00 86 1012.0
20260502050015 10 0.0 3.2 0.00 0.00 0.00 86 1011.8
20260502045515 10 0.0 0.0 0.00 0.00 0.00 86 1011.9
20260502045015 10 0.0 0.0 0.00 0.00 0.00 85 1011.8
20260502044515 10 0.0 1.6 0.00 0.00 0.00 84 1011.6
20260502044015 10 0.0 0.0 0.00 0.00 0.00 84 1011.6
20260502043515 10 203 1.6 3.2 0.00 0.00 0.00 84 1011.7
20260502043015 10 0.0 0.0 0.00 0.00 0.00 83 1011.4
20260502042515 10 203 1.6 3.2 0.00 0.00 0.00 83 1011.3
20260502042015 10 0.0 3.2 0.00 0.00 0.00 84 1011.6
20260502041515 10 0.0 0.0 0.00 0.00 0.00 84 1011.8
20260502041015 10 0.0 0.0 0.00 0.00 0.00 83 1011.5
20260502040515 10 0.0 0.0 0.00 0.00 0.00 83 1011.7
20260502040015 10 0.0 0.0 0.00 0.00 0.00 83 1011.6
20260502035516 10 0.0 1.6 0.00 0.00 0.00 83 1011.6
20260502035016 10 0.0 0.0 0.00 0.00 0.00 83 1011.7
20260502034516 10 0.0 0.0 0.00 0.00 0.00 83 1011.7
20260502034016 10 0.0 1.6 0.00 0.00 0.00 83 1011.6
20260502033516 10 0.0 1.6 0.00 0.00 0.00 82 1011.6
20260502033016 10 0.0 0.0 0.00 0.00 0.00 83 1011.6
20260502032516 10 0.0 0.0 0.00 0.00 0.00 82 1011.7
20260502032016 10 0.0 1.6 0.00 0.00 0.00 82 1011.7
20260502031516 10 0.0 0.0 0.00 0.00 0.00 82 1011.6
20260502031016 10 0.0 0.0 0.00 0.00 0.00 82 1011.5
20260502030516 10 0.0 0.0 0.00 0.00 0.00 82 1011.6
20260502030016 10 0.0 0.0 0.00 0.00 0.00 82 1011.6
20260502025516 10 0.0 0.0 0.00 0.00 0.00 80 1011.8
20260502025016 10 0.0 0.0 0.00 0.00 0.00 80 1011.8
20260502024516 10 0.0 0.0 0.00 0.00 0.00 78 1011.8
20260502024016 10 0.0 0.0 0.00 0.00 0.00 79 1011.8
20260502023516 10 0.0 0.0 0.00 0.00 0.00 78 1011.7
20260502023016 10 0.0 0.0 0.00 0.00 0.00 78 1011.7
20260502022516 10 0.0 0.0 0.00 0.00 0.00 77 1011.6
20260502022016 10 0.0 0.0 0.00 0.00 0.00 76 1011.5
20260502021516 10 0.0 0.0 0.00 0.00 0.00 77 1011.5
20260502021016 10 0.0 0.0 0.00 0.00 0.00 74 1011.6
20260502020516 10 0.0 0.0 0.00 0.00 0.00 74 1011.6
20260502020016 10 0.0 0.0 0.00 0.00 0.00 75 1011.5
20260502015516 10 0.0 0.0 0.00 0.00 0.00 74 1011.4
20260502015016 10 0.0 0.0 0.00 0.00 0.00 74 1011.4
20260502014516 10 0.0 0.0 0.00 0.00 0.00 76 1011.4
20260502014016 10 0.0 0.0 0.00 0.00 0.00 76 1011.3
20260502013516 10 0.0 0.0 0.00 0.00 0.00 75 1011.2
20260502013016 11 0.0 0.0 0.00 0.00 0.00 73 1011.3
20260502012516 11 0.0 0.0 0.00 0.00 0.00 70 1011.3
20260502012016 11 0.0 0.0 0.00 0.00 0.00 70 1011.4
20260502011516 11 0.0 0.0 0.00 0.00 0.00 71 1011.4
20260502011016 11 0.0 0.0 0.00 0.00 0.00 70 1011.3
20260502010516 11 0.0 0.0 0.00 0.00 0.00 69 1011.3
20260502010016 12 0.0 0.0 0.00 0.00 0.00 66 1011.2
20260502005516 12 0.0 0.0 0.00 0.00 0.00 64 1011.3
20260502005016 12 0.0 0.0 0.00 0.00 0.00 63 1011.4
20260502004516 12 0.0 0.0 0.00 0.00 0.00 63 1011.4
20260502004016 13 0.0 0.0 0.00 0.00 0.00 63 1011.4
20260502003516 13 0.0 0.0 0.00 0.00 0.00 61 1011.2
20260502003016 13 0.0 0.0 0.00 0.00 0.00 59 1011.2
20260502002516 13 0.0 1.6 0.00 0.00 0.00 59 1011.1
20260502002016 13 203 1.6 6.4 0.00 0.00 0.00 58 1011.0
20260502001516 13 203 1.6 9.7 0.00 0.00 0.00 57 1011.0
20260502001016 13 203 1.6 3.2 0.00 0.00 0.00 58 1010.9
20260502000516 13 180 3.2 6.4 0.00 0.00 0.00 56 1010.8
20260502000016 13 203 4.8 11.3 0.00 0.00 0.00 56 1010.8
20260501235516 14 225 3.2 6.4 0.00 0.00 0.00 56 1010.8
20260501235016 14 225 3.2 6.4 0.00 0.00 0.00 56 1010.9
20260501234516 14 248 3.2 8.0 0.00 0.00 0.00 55 1010.8
20260501234016 14 248 4.8 14.5 0.00 0.00 0.00 54 1010.7
20260501233516 14 203 3.2 9.7 0.00 0.00 0.00 53 1010.7
20260501233016 15 203 4.8 11.3 0.00 0.00 0.00 53 1010.6
20260501232516 15 248 3.2 8.0 0.00 0.00 0.00 53 1010.6
20260501232016 15 225 3.2 6.4 0.00 0.00 0.00 53 1010.5
20260501231516 15 225 3.2 11.3 0.00 0.00 0.00 52 1010.4
20260501231016 15 248 3.2 6.4 0.00 0.00 0.00 51 1010.4
20260501230516 15 270 3.2 12.9 0.00 0.00 0.00 51 1010.2
20260501230016 15 293 3.2 6.4 0.00 0.00 0.00 50 1010.1
20260501225516 15 248 4.8 9.7 0.00 0.00 0.00 49 1010.0
20260501225016 15 293 4.8 14.5 0.00 0.00 0.00 48 1010.0
20260501224516 15 270 4.8 12.9 0.00 0.00 0.00 48 1009.9
20260501224015 15 225 4.8 11.3 0.00 0.00 0.00 48 1009.8
20260501223516 16 0 4.8 9.7 0.00 0.00 0.00 46 1009.9
20260501223015 16 315 6.4 17.7 0.00 0.00 0.00 46 1009.8
20260501222515 16 270 4.8 16.1 0.00 0.00 0.00 45 1009.8
20260501222016 16 0.0 4.8 0.00 0.00 0.00 46 1009.8
20260501221515 16 293 3.2 6.4 0.00 0.00 0.00 46 1009.8
20260501221016 16 225 1.6 3.2 0.00 0.00 0.00 45 1009.7
20260501220516 16 225 1.6 4.8 0.00 0.00 0.00 45 1009.8
20260501220016 16 225 1.6 4.8 0.00 0.00 0.00 45 1009.8
20260501215516 16 225 3.2 6.4 0.00 0.00 0.00 45 1009.7
20260501215016 16 270 1.6 4.8 0.00 0.00 0.00 44 1009.7
20260501214516 17 270 1.6 4.8 0.00 0.00 0.00 44 1009.7
20260501214015 17 270 1.6 4.8 0.00 0.00 0.00 43 1009.6
20260501213516 17 248 1.6 4.8 0.00 0.00 0.00 43 1009.5
20260501213015 17 293 3.2 6.4 0.00 0.00 0.00 44 1009.6
20260501212515 17 225 3.2 6.4 0.00 0.00 0.00 41 1009.5
20260501212015 17 225 3.2 6.4 0.00 0.00 0.00 42 1009.5
20260501211515 18 225 1.6 6.4 0.00 0.00 0.00 44 1009.5
20260501211015 18 203 4.8 11.3 0.00 0.00 0.00 39 1009.4
20260501210515 18 225 3.2 9.7 0.00 0.00 0.00 41 1009.4
20260501210015 19 225 4.8 12.9 0.00 0.00 0.00 38 1009.5
20260501205515 19 315 3.2 11.3 0.00 0.00 0.00 39 1009.5
20260501205015 18 315 3.2 6.4 0.00 0.00 0.00 40 1009.4
20260501204515 18 270 1.6 6.4 0.00 0.00 0.00 39 1009.4
20260501204015 18 270 1.6 4.8 0.00 0.00 0.00 40 1009.5
20260501203515 18 270 3.2 9.7 0.00 0.00 0.00 39 1009.5
20260501203015 19 225 3.2 6.4 0.00 0.00 0.00 40 1009.6
20260501202515 19 225 3.2 8.0 0.00 0.00 0.00 38 1009.5
20260501202015 19 203 4.8 11.3 0.00 0.00 0.00 41 1009.5
20260501201515 18 203 6.4 12.9 0.00 0.00 0.00 38 1009.6
20260501201015 18 45 3.2 6.4 0.00 0.00 0.00 38 1009.6
20260501200516 18 315 4.8 9.7 0.00 0.00 0.00 39 1009.7
20260501200015 18 315 3.2 11.3 0.00 0.00 0.00 43 1009.7
20260501195515 18 270 4.8 9.7 0.00 0.00 0.00 40 1009.7
20260501195015 18 270 4.8 9.7 0.00 0.00 0.00 39 1009.7
20260501194515 19 293 8.0 16.1 0.00 0.00 0.00 38 1009.8
20260501194015 19 315 4.8 12.9 0.00 0.00 0.00 37 1009.8
20260501193515 19 225 4.8 11.3 0.00 0.00 0.00 39 1009.9
20260501193015 19 248 4.8 11.3 0.00 0.00 0.00 40 1009.9
20260501192515 18 293 4.8 12.9 0.00 0.00 0.00 40 1009.8
20260501192015 18 248 3.2 8.0 0.00 0.00 0.00 42 1010.0
20260501191515 19 248 3.2 6.4 0.00 0.00 0.00 40 1010.0
20260501191015 19 225 6.4 11.3 0.00 0.00 0.00 38 1010.0
20260501190515 19 293 6.4 11.3 0.00 0.00 0.00 42 1010.2
20260501190015 19 248 6.4 14.5 0.00 0.00 0.00 42 1010.2
20260501185515 19 225 6.4 11.3 0.00 0.00 0.00 40 1010.2
20260501185015 18 225 6.4 12.9 0.00 0.00 0.00 39 1010.5
20260501184515 18 293 6.4 16.1 0.00 0.00 0.00 42 1010.6
20260501184015 18 225 6.4 16.1 0.00 0.00 0.00 41 1010.6
20260501183515 18 270 3.2 12.9 0.00 0.00 0.00 43 1010.6
20260501183015 18 225 6.4 16.1 0.00 0.00 0.00 40 1010.8
20260501182515 18 270 8.0 16.1 0.00 0.00 0.00 40 1010.7
20260501182015 18 270 6.4 11.3 0.00 0.00 0.00 42 1010.8
20260501181515 18 270 6.4 12.9 0.00 0.00 0.00 41 1010.8
20260501181015 18 225 6.4 12.9 0.00 0.00 0.00 39 1010.9
20260501180515 18 225 6.4 12.9 0.00 0.00 0.00 43 1010.9
20260501180015 18 248 6.4 12.9 0.00 0.00 0.00 43 1011.0
20260501175515 18 270 6.4 14.5 0.00 0.00 0.00 42 1010.9
20260501175015 18 203 4.8 11.3 0.00 0.00 0.00 40 1010.9
20260501174515 18 248 4.8 17.7 0.00 0.00 0.00 44 1011.0
20260501174015 17 0 4.8 14.5 0.00 0.00 0.00 39 1011.0
20260501173515 17 225 8.0 20.9 0.00 0.00 0.00 44 1011.1
20260501173015 18 315 4.8 12.9 0.00 0.00 0.00 44 1011.2
20260501172515 17 315 6.4 12.9 0.00 0.00 0.00 42 1011.2
20260501172015 17 225 8.0 16.1 0.00 0.00 0.00 41 1011.1
20260501171515 17 293 6.4 12.9 0.00 0.00 0.00 44 1011.3
20260501171015 17 293 8.0 19.3 0.00 0.00 0.00 39 1011.4
20260501170515 17 293 4.8 11.3 0.00 0.00 0.00 44 1011.4
20260501170015 17 270 8.0 14.5 0.00 0.00 0.00 45 1011.5
20260501165515 17 225 9.7 16.1 0.00 0.00 0.00 45 1011.4
20260501165015 17 225 8.0 17.7 0.00 0.00 0.00 45 1011.5
20260501164515 17 225 6.4 16.1 0.00 0.00 0.00 42 1011.6
20260501164015 17 225 9.7 20.9 0.00 0.00 0.00 46 1011.7
20260501163515 17 225 11.3 25.7 0.00 0.00 0.00 44 1011.7
20260501163015 17 248 8.0 17.7 0.00 0.00 0.00 47 1011.8
20260501162515 17 315 6.4 14.5 0.00 0.00 0.00 45 1011.8
20260501162015 17 270 8.0 14.5 0.00 0.00 0.00 50 1011.8
20260501161515 16 293 6.4 16.1 0.00 0.00 0.00 44 1011.7
20260501161015 16 180 4.8 11.3 0.00 0.00 0.00 43 1011.8
20260501160515 17 225 3.2 8.0 0.00 0.00 0.00 46 1012.0
20260501160015 17 248 6.4 12.9 0.00 0.00 0.00 48 1012.0
20260501155515 17 248 9.7 16.1 0.00 0.00 0.00 51 1012.1
20260501155015 16 203 6.4 11.3 0.00 0.00 0.00 47 1012.1